Wind_Speed
15 16 16 16 15 15 15 14 14 15 16 16 17 16 16 15 16 16 16 17 17 17 17 16 15 15 14 13 14 14 14 13 13 13 13 13 12 12 12 12 12 13 13 13
15 15 16 16 15 15 15 15 15 16 16 16 16 16 16 16 16 16 17 17 17 17 16 15 15 14 13 14 14 14 14 13 13 13 12 12 12 12 12 13 13 13 13 13
15 15 16 16 15 15 15 15 15 15 16 16 15 16 16 16 16 16 17 17 16 16 16 15 15 14 14 14 14 14 13 13 12 12 12 12 12 12 13 13 13 13 13 13
15 16 17 16 16 15 15 15 15 15 15 16 16 16 16 16 16 17 18 17 17 16 15 15 15 15 15 14 14 13 13 13 13 12 12 12 13 13 13 13 13 13 13 14
16 17 17 17 16 15 15 15 14 15 15 15 15 16 17 17 17 17 17 17 16 16 16 15 15 15 15 14 13 13 13 13 14 13 13 13 14 13 13 13 13 14 14 14
18 17 17 17 16 15 15 15 15 15 16 16 16 16 17 17 18 18 18 17 16 16 16 16 16 16 15 15 15 14 14 13 14 14 14 14 14 14 14 13 14 14 14 14
18 18 18 17 16 15 16 16 16 16 16 17 17 17 18 18 18 18 19 18 18 18 17 17 17 17 16 16 15 15 14 14 15 15 15 15 14 14 14 13 14 14 14 15
18 19 19 18 18 17 17 17 17 17 17 17 18 18 19 19 19 19 19 19 19 18 18 17 17 17 17 16 16 15 15 15 16 15 15 14 14 13 13 14 14 15 15 15
20 20 20 19 19 19 19 19 18 19 19 19 19 19 20 20 20 20 20 20 19 19 18 18 18 18 17 17 16 16 16 16 16 16 15 14 14 13 13 14 14 15 15 15
22 22 21 21 21 21 20 20 20 20 20 20 20 20 20 21 21 21 21 20 20 20 19 18 18 18 18 17 17 17 17 16 15 15 14 14 14 14 14 15 15 15 15 16
24 24 23 22 23 23 22 22 22 22 22 22 22 21 22 22 22 22 21 21 21 20 20 19 18 18 18 18 18 18 17 16 15 14 14 14 13 13 13 14 15 14 15 15
25 25 24 24 25 25 25 24 23 24 24 24 24 23 23 23 23 23 22 22 21 21 20 19 19 18 18 18 18 17 17 16 16 15 15 14 14 13 14 14 14 13 13 13
27 26 26 25 26 25 25 25 24 25 25 25 24 24 24 24 24 24 23 22 22 21 21 20 19 18 19 19 18 18 17 16 16 15 15 15 14 14 14 14 14 14 13 13
28 27 27 26 26 26 26 25 25 25 25 25 25 25 25 25 25 24 23 22 21 21 20 20 19 19 19 18 18 17 17 17 17 17 16 16 15 14 14 14 14 14 14 14
29 29 28 28 27 27 27 26 26 26 25 25 25 25 25 25 25 24 23 22 21 20 19 20 20 19 19 19 18 17 17 17 17 17 16 16 15 14 14 14 14 14 14 14
29 29 28 28 28 27 27 27 27 27 26 25 25 25 25 25 24 24 22 21 20 20 20 20 20 19 19 18 18 17 17 17 17 17 16 16 15 14 14 14 14 14 14 15
30 29 29 29 28 28 27 27 27 27 27 26 26 26 25 24 24 24 22 21 21 21 20 20 20 20 19 19 18 17 17 16 16 16 16 16 15 14 14 15 15 15 15 15
29 29 29 29 29 28 28 27 27 27 27 26 26 26 25 24 23 23 22 22 21 21 21 21 20 20 19 19 18 17 17 17 16 16 15 14 14 14 15 15 15 15 15 15
28 28 28 28 28 28 28 28 27 27 27 27 26 25 25 24 24 23 22 22 22 22 21 21 21 20 20 19 18 18 17 17 17 16 16 15 15 16 16 16 16 16 16 16
27 27 27 26 26 27 27 27 27 26 26 26 25 24 23 23 23 22 22 22 22 22 22 21 20 20 20 19 18 18 17 17 16 16 16 16 16 16 16 17 17 16 16 16
25 25 24 24 24 25 25 26 25 25 24 24 23 23 23 22 22 22 21 21 21 21 21 21 20 20 20 20 19 19 18 18 17 17 17 17 16 17 17 17 17 17 17 18
25 25 25 24 24 25 25 25 24 24 24 23 23 23 23 22 22 22 22 22 21 21 21 20 20 20 20 20 20 19 19 18 18 18 17 17 17 17 17 18 17 17 18 18
25 25 24 24 24 24 24 24 24 24 24 23 23 23 23 23 23 23 23 23 22 21 21 21 20 20 20 20 20 20 19 19 19 19 19 19 18 18 18 18 18 18 18 18
25 25 24 24 24 24 23 24 23 23 23 23 23 23 23 23 22 22 23 23 23 22 22 22 21 20 20 20 21 20 21 21 21 21 21 21 20 20 20 19 19 19 19 19
26 25 25 25 25 25 24 24 24 24 24 24 24 24 24 24 23 22 22 22 22 22 21 21 21 21 21 21 21 21 21 21 21 21 21 21 22 21 21 20 20 20 20 20
27 26 26 25 25 25 25 25 25 25 25 25 26 26 25 25 25 24 23 23 22 22 22 22 21 21 22 22 22 22 22 21 21 21 21 22 22 22 22 21 21 21 20 20
27 27 27 27 26 26 26 26 26 26 26 26 27 27 28 27 26 25 25 24 23 23 23 23 22 22 22 22 22 22 21 21 21 21 22 22 22 22 22 21 21 20 20 20
Wind_Direction
286 289 293 293 292 292 293 294 294 294 297 302 304 304 305 306 307 309 310 313 314 314 315 313 309 307 306 305 304 304 304 301 301 302 305 304 304 308 310 310 310 313 316 313
287 291 295 294 292 292 293 294 296 296 299 303 303 302 305 307 309 310 312 314 316 315 313 312 310 308 306 306 305 305 306 306 307 305 303 303 305 308 310 308 307 312 315 315
286 289 291 292 293 295 296 296 297 299 301 304 304 303 305 307 309 311 314 316 317 316 314 311 310 307 305 306 306 307 310 311 312 307 303 302 304 306 308 308 306 308 311 313
284 288 289 288 290 292 294 296 295 298 300 301 301 302 304 306 309 311 314 316 315 315 313 313 311 306 307 307 309 310 310 310 310 308 305 302 303 305 306 304 302 304 308 310
281 285 288 287 288 290 290 292 295 298 301 301 302 302 304 305 306 307 312 314 313 313 313 313 311 306 303 304 305 306 307 307 307 306 304 303 301 303 305 302 301 302 304 305
277 280 282 283 285 288 289 289 294 298 300 301 302 302 302 303 304 305 308 309 311 311 310 310 310 309 304 304 305 305 304 303 303 303 302 301 300 301 303 303 303 304 304 303
273 277 278 281 282 285 286 288 293 297 299 299 300 302 303 303 303 303 306 307 307 308 309 310 309 308 305 303 301 300 298 298 299 300 300 300 299 300 300 301 302 304 305 306
271 273 276 281 281 281 282 286 290 294 297 298 298 300 303 305 304 303 303 304 305 304 304 306 307 306 305 302 300 296 294 293 295 297 299 298 299 299 299 301 303 303 305 305
270 273 276 277 279 280 283 284 287 289 292 296 298 299 301 303 304 303 303 302 303 303 301 300 302 304 304 303 301 297 295 293 292 293 293 295 296 296 297 299 302 303 303 304
269 272 274 275 276 278 281 282 284 285 288 291 294 296 298 300 301 302 302 301 302 303 301 300 300 300 300 299 299 297 295 293 293 293 292 291 294 294 296 298 301 302 303 304
267 269 271 274 275 276 277 280 283 285 286 288 291 294 296 297 298 299 299 300 300 300 300 298 298 298 297 295 297 297 294 291 291 291 289 290 292 293 295 298 300 301 304 307
268 269 272 274 277 277 277 279 282 285 286 288 290 292 293 294 294 296 297 296 296 296 296 293 293 295 295 294 294 294 291 289 290 289 287 289 290 292 294 297 301 303 306 309
268 270 272 274 275 276 276 277 281 285 286 286 288 289 290 291 292 293 293 292 292 292 292 290 288 289 291 292 290 290 289 286 286 283 283 286 288 292 294 296 301 303 306 309
268 270 272 273 273 275 276 278 280 282 285 286 287 287 289 289 290 291 289 289 289 289 289 288 287 288 290 290 290 289 287 285 283 280 280 283 286 289 291 294 297 300 302 306
268 270 271 271 273 274 275 277 279 282 283 284 286 287 288 288 288 287 287 287 286 287 287 287 287 288 289 288 288 287 285 282 281 280 281 284 284 285 288 291 295 297 299 305
269 269 270 270 272 273 274 276 277 279 282 284 285 285 286 285 285 286 285 283 282 283 285 287 288 287 286 285 286 285 283 281 280 279 280 283 284 285 288 292 295 296 298 303
268 268 269 269 270 271 273 275 276 278 281 282 282 283 283 283 283 283 282 280 279 280 283 286 287 286 284 283 284 285 283 282 281 280 280 280 280 284 289 291 296 297 296 301
267 267 268 269 270 271 272 273 275 277 278 279 279 280 281 280 280 280 280 279 277 278 279 283 284 284 283 283 284 284 283 282 280 279 279 279 279 282 287 289 293 294 295 302
267 267 269 269 270 270 270 271 273 275 276 277 278 278 278 278 278 277 277 277 277 277 278 280 281 281 281 281 282 282 282 281 279 277 277 279 280 282 285 286 291 294 295 299
265 267 268 269 269 270 270 271 272 273 274 274 275 277 277 277 278 278 277 278 277 276 278 278 278 279 280 281 281 279 279 278 277 276 276 279 281 282 284 286 289 290 291 295
264 264 265 267 268 269 270 271 272 272 272 272 274 275 276 276 276 277 278 277 277 278 278 276 274 276 278 278 278 277 277 276 275 274 275 278 280 281 282 284 286 287 290 293
262 261 262 266 267 268 269 270 271 270 270 271 272 273 274 275 275 275 277 277 277 278 277 275 275 276 277 276 275 276 275 275 274 274 273 277 280 280 281 283 285 287 290 291
261 262 264 265 265 265 267 269 269 267 267 268 270 271 273 273 273 273 274 274 275 276 275 274 275 276 276 275 274 275 275 274 274 274 274 275 277 278 279 281 283 286 290 292
264 263 263 264 263 263 264 266 267 265 264 265 267 268 270 271 272 273 273 273 274 274 272 273 273 274 274 274 274 274 274 274 274 274 274 273 273 275 277 279 281 285 289 291
263 264 265 265 265 265 264 265 265 265 265 266 267 268 267 268 271 274 273 273 273 272 271 271 271 272 273 274 274 273 273 273 273 274 275 275 274 274 276 277 280 283 285 287
261 262 262 262 263 263 263 264 264 264 266 267 268 269 270 270 272 272 273 275 273 273 272 270 270 271 272 273 274 272 271 272 272 273 273 274 275 275 274 275 277 280 282 285
262 262 262 263 263 263 263 263 264 265 266 268 268 269 269 269 270 271 273 273 273 274 273 271 269 271 272 273 273 270 268 269 270 271 274 275 275 274 274 274 276 278 281 285
Height
5818 5817 5815 5814 5813 5811 5810 5809 5808 5807 5804 5803 5800 5798 5796 5794 5792 5790 5788 5785 5782 5779 5776 5774 5771 5769 5767 5766 5764 5762 5761 5759 5757 5756 5754 5752 5751 5749 5747 5745 5743 5740 5738 5735
5814 5812 5811 5810 5809 5807 5806 5805 5803 5802 5800 5798 5796 5794 5792 5790 5788 5786 5784 5781 5778 5775 5773 5770 5768 5766 5764 5763 5761 5759 5757 5755 5753 5752 5750 5749 5747 5745 5744 5742 5740 5737 5735 5732
5809 5808 5807 5806 5805 5803 5802 5801 5800 5798 5797 5794 5792 5790 5788 5786 5784 5782 5780 5777 5775 5772 5769 5767 5765 5763 5762 5760 5758 5756 5754 5752 5750 5748 5747 5745 5744 5742 5740 5738 5736 5734 5732 5729
5805 5804 5803 5803 5800 5799 5798 5796 5795 5793 5792 5790 5788 5786 5784 5782 5780 5778 5776 5773 5771 5768 5766 5764 5762 5760 5758 5757 5755 5753 5750 5749 5747 5745 5744 5742 5740 5738 5736 5734 5733 5731 5729 5726
5800 5799 5798 5797 5795 5794 5793 5792 5791 5789 5788 5786 5784 5782 5780 5778 5776 5774 5772 5769 5767 5765 5763 5761 5758 5757 5755 5753 5751 5749 5747 5746 5744 5742 5741 5739 5737 5735 5733 5731 5729 5727 5725 5723
5794 5794 5793 5793 5791 5789 5789 5788 5786 5785 5783 5782 5780 5779 5777 5774 5772 5770 5768 5765 5763 5761 5759 5757 5755 5753 5751 5749 5747 5746 5744 5742 5740 5739 5737 5735 5733 5731 5730 5728 5726 5724 5722 5719
5789 5788 5787 5787 5786 5785 5786 5784 5782 5780 5779 5777 5775 5774 5772 5769 5767 5765 5763 5761 5759 5757 5755 5753 5751 5749 5747 5745 5743 5742 5740 5738 5737 5735 5733 5731 5729 5728 5726 5724 5722 5720 5718 5716
5783 5782 5783 5781 5780 5780 5779 5777 5776 5775 5774 5772 5770 5768 5767 5764 5762 5760 5758 5756 5754 5752 5750 5748 5746 5745 5743 5741 5739 5738 5736 5734 5732 5731 5729 5727 5725 5724 5722 5720 5719 5716 5714 5711
5777 5778 5776 5775 5774 5773 5772 5771 5770 5769 5768 5767 5765 5763 5761 5759 5757 5755 5753 5751 5749 5747 5745 5743 5742 5740 5738 5736 5734 5733 5731 5729 5727 5726 5724 5722 5721 5720 5718 5716 5714 5712 5710 5707
5768 5768 5768 5768 5767 5766 5766 5765 5764 5763 5762 5761 5759 5757 5756 5754 5752 5750 5748 5745 5743 5742 5740 5738 5736 5734 5733 5731 5729 5728 5726 5724 5722 5721 5719 5718 5717 5715 5714 5712 5710 5708 5705 5702
5761 5761 5761 5760 5759 5759 5758 5758 5757 5756 5755 5754 5752 5751 5749 5748 5746 5744 5742 5740 5738 5736 5735 5733 5731 5729 5727 5726 5724 5722 5720 5719 5717 5716 5715 5714 5712 5711 5709 5708 5706 5703 5701 5698
5753 5753 5753 5753 5752 5751 5751 5750 5749 5748 5748 5746 5745 5744 5742 5741 5739 5737 5736 5734 5732 5730 5729 5727 5725 5723 5722 5720 5718 5717 5715 5714 5712 5711 5710 5709 5708 5706 5705 5703 5701 5699 5696 5694
5744 5744 5745 5745 5744 5743 5743 5742 5741 5741 5740 5738 5737 5736 5735 5734 5732 5731 5729 5727 5726 5724 5722 5721 5719 5717 5716 5714 5713 5711 5710 5708 5707 5706 5705 5704 5703 5701 5700 5698 5696 5694 5692 5690
5735 5735 5736 5735 5735 5735 5735 5734 5733 5733 5731 5730 5729 5728 5727 5726 5725 5723 5722 5721 5719 5717 5716 5714 5713 5711 5710 5708 5707 5705 5704 5703 5702 5701 5700 5699 5698 5696 5695 5693 5692 5690 5688 5686
5726 5726 5726 5726 5726 5726 5726 5726 5725 5724 5723 5722 5721 5720 5719 5718 5717 5716 5715 5713 5712 5711 5710 5708 5707 5705 5704 5702 5701 5699 5698 5697 5696 5695 5694 5693 5692 5691 5690 5689 5687 5685 5684 5682
5716 5716 5716 5716 5716 5717 5717 5717 5716 5716 5715 5714 5713 5712 5711 5710 5709 5708 5707 5706 5705 5704 5703 5702 5701 5699 5698 5696 5695 5694 5693 5692 5691 5690 5689 5688 5687 5687 5686 5684 5683 5681 5680 5678
5706 5706 5707 5707 5707 5707 5707 5707 5707 5707 5706 5705 5705 5704 5703 5702 5701 5701 5700 5699 5698 5697 5696 5695 5694 5693 5691 5690 5689 5688 5687 5686 5685 5684 5684 5683 5682 5682 5681 5680 5678 5677 5675 5673
5696 5696 5697 5697 5697 5698 5698 5698 5698 5698 5697 5697 5696 5695 5695 5694 5693 5693 5692 5691 5691 5690 5689 5688 5687 5686 5685 5684 5683 5682 5681 5680 5680 5679 5678 5677 5677 5677 5676 5675 5674 5672 5670 5668
5686 5686 5687 5687 5688 5688 5688 5688 5688 5689 5688 5688 5687 5687 5686 5686 5685 5685 5684 5683 5683 5683 5683 5682 5681 5680 5679 5678 5677 5676 5675 5675 5674 5673 5673 5673 5672 5672 5671 5670 5668 5667 5666 5664
5676 5677 5677 5678 5678 5679 5679 5679 5679 5679 5679 5679 5679 5679 5678 5678 5678 5677 5676 5676 5676 5676 5675 5675 5674 5673 5672 5672 5671 5670 5670 5669 5668 5668 5668 5667 5666 5666 5665 5664 5663 5662 5660 5659
5667 5668 5668 5669 5669 5670 5670 5670 5671 5671 5671 5671 5671 5671 5670 5670 5670 5670 5669 5669 5669 5668 5668 5668 5667 5666 5666 5665 5664 5664 5664 5663 5663 5662 5662 5661 5661 5660 5659 5658 5657 5656 5655 5653
5658 5659 5660 5660 5661 5661 5661 5662 5662 5662 5663 5663 5663 5663 5663 5663 5663 5662 5662 5662 5662 5661 5661 5660 5660 5659 5659 5658 5658 5658 5657 5657 5657 5656 5656 5655 5655 5654 5653 5652 5651 5650 5648 5647
5649 5650 5651 5652 5652 5653 5653 5653 5654 5654 5655 5655 5655 5656 5656 5656 5655 5655 5655 5655 5654 5654 5654 5653 5653 5653 5652 5652 5651 5651 5651 5650 5650 5650 5649 5649 5648 5648 5647 5646 5645 5644 5642 5641
5640 5641 5642 5643 5643 5644 5645 5645 5646 5646 5647 5647 5648 5648 5648 5648 5648 5647 5647 5647 5647 5646 5646 5646 5646 5646 5645 5645 5644 5644 5643 5643 5643 5643 5642 5642 5641 5641 5640 5639 5638 5637 5635 5634
5631 5632 5633 5634 5634 5635 5636 5637 5637 5638 5639 5639 5640 5640 5640 5640 5640 5640 5640 5640 5639 5639 5639 5639 5638 5638 5638 5637 5637 5636 5636 5635 5635 5635 5635 5634 5634 5633 5632 5632 5631 5630 5628 5627
5622 5623 5624 5625 5625 5626 5627 5628 5629 5629 5630 5631 5631 5631 5631 5632 5632 5632 5632 5632 5632 5632 5631 5631 5631 5630 5630 5629 5629 5629 5628 5628 5627 5627 5627 5627 5626 5625 5625 5624 5624 5622 5621 5620
5613 5614 5614 5615 5616 5617 5618 5619 5620 5620 5621 5621 5622 5622 5623 5623 5623 5624 5624 5624 5624 5624 5623 5623 5623 5622 5622 5622 5621 5621 5620 5620 5620 5620 5619 5619 5618 5618 5617 5616 5616 5615 5614 5613